Regional Weather Roundup
Issued by NWS Burlington, VT

Home | Current Version | Previous Version | Text Only | Print | Product List | Glossary On
Versions: 1 2 3 4 5 6 7 8 9 10 11 12 13 14 15 16 17 18 19 20 21 22 23 24 25 26 27 28 29 30 31 32 33 34 35 36 37 38 39 40 41 42 43 44 45 46 47 48 49 50
000
ASUS41 KBTV 201330
RWRBTV
VERMONT REGIONAL WEATHER ROUNDUP
NATIONAL WEATHER SERVICE BURLINGTON VT
900 AM EDT MON OCT 20 2014

NOTE: "FAIR" INDICATES FEW OR NO CLOUDS BELOW 12,000 FEET WITH NO
SIGNIFICANT WEATHER AND/OR OBSTRUCTIONS TO VISIBILITY.

* THESE REPORTS ARE NOT UNDER NWS QUALITY CONTROL AND/OR DO NOT
  REPORT WEATHER SUCH AS PRECIPITATION AND FOG.

VTZ001>019-201400-
_____VERMONT_____


CITY           SKY/WX    TMP DP  RH WIND       PRES   REMARKS
BURLINGTON     MOSUNNY   38  26  62 S10       30.01R
MONTPELIER     MOSUNNY   35  27  72 CALM      30.01R
MORRISVILLE    MOSUNNY   37  30  75 CALM      29.99S
ST. JOHNSBURY*   N/A     37  28  70 MISG      29.97S
MIDDLEBURY*    FAIR      38  31  73 S5        30.02R
RUTLAND*       MOSUNNY   36  28  75 CALM      30.02R
SPRINGFIELD    PTSUNNY   32  28  85 CALM      30.03S
HIGHGATE*      FAIR      40  31  68 SE6       30.00R
NEWPORT*       FAIR     N/A N/A N/A SW5       29.97S
BENNINGTON     MOSUNNY   34  29  82 CALM      30.03R
SUTTON*          N/A     34 N/A N/A MISG        N/A
GALLUP MILLS*    N/A     36 N/A N/A MISG        N/A
UNION VILLAGE*   N/A     36 N/A N/A MISG        N/A
MT. MANSFIELD*   N/A     25 N/A N/A NW15        N/A  WCI  12

_____LAKE CHAMPLAIN_____


CITY           SKY/WX    TMP DP  RH WIND       PRES   REMARKS
BURTON ISLAND*   N/A     41  32  70 SE13        N/A
COLCHESTER RF*   N/A     39  34  81 S16         N/A
DIAMOND ISL*     N/A     36  30  80 S12         N/A

$$

NYZ007-026>031-035-052-083-201400-
_____NORTHERN NEW YORK_____


CITY           SKY/WX    TMP DP  RH WIND       PRES   REMARKS
PLATTSBURGH    MOSUNNY   36  31  82 CALM      30.00R
SARANAC LAKE   CLOUDY    32  29  88 SW6       29.93S
MASSENA        PTSUNNY   35  32  88 CALM      29.99S
OGDENSBURG*    SUNNY     37  36  93 CALM      29.97S
POTSDAM*       MOSUNNY   39  36  87 CALM      29.97S
PARISHVILLE*     N/A     39 N/A N/A SE7         N/A
WATERTOWN      CLOUDY    44  33  65 MISG      29.95F
FT DRUM        PTSUNNY   39  36  87 SE8       29.95S
ALBANY         PTSUNNY   39  32  76 SE6       30.05F
GLENS FALLS    PTSUNNY   36  32  85 S6        30.04R

$$
NHZ002-005-011-201400-
_____NEW HAMPSHIRE_____


CITY           SKY/WX    TMP DP  RH WIND       PRES   REMARKS
LEBANON        MOSUNNY   34  26  72 CALM      30.02R
KEENE          SUNNY     36  23  60 CALM      30.05R
MT WASHINGTON  MOSUNNY   19  -9  27 NW41        N/A  WCI  -2
PLYMOUTH       PTSUNNY   39  31  71 W8        29.99S
WHITEFIELD     PTSUNNY   37  27  67 CALM      29.98S

$$

_____REGIONAL QUEBEC LOCATIONS_____


CITY           SKY/WX    TMP DP  RH WIND       PRES   REMARKS
MONTREAL       PTSUNNY   39  30  70 SW7       29.99R
QUEBEC CITY    PTSUNNY   37  28  70 W12       29.92R
SHERBROOKE     CLOUDY    36  27  69 W7        29.96S

_____REGIONAL ONTARIO LOCATIONS_____


CITY           SKY/WX    TMP DP  RH WIND       PRES   REMARKS
OTTAWA         PTSUNNY   34  30  86 SE5       29.97R

______KEY______
VSB  - VISIBILITY IN MILES
WCI  - WIND CHILL INDEX
HX   - HEAT INDEX
$$



USA.gov is the U.S. government's official web portal to all federal, state and local government web resources and services.